AFL7337 URSS-LGKR

Flight info

Callsign AFL7337
Flight time 2h 24m
Altitude 36000
Route LAME1D LAMET G487 ODIRA UW96 SIN UN644 GUMRU UW702 PAZAR UN644 BKZ UM603 EKI UG12 GOLDO UM603 TSL UM600 PARAX
Aircraft B738/M-SDE1FGHIJ1RWXYZ/LB1

Departure

Time 2026-05-06 10:36
Airport Sochi International Airport (URSS)

Arrival

Time 2026-05-06 13:00
Airport Corfu Ioannis Kapodistrias International Airport (LGKR)
Time Latitude Longitude Altitude Speed Heading
2026-05-06 09:58 43.44750 39.94182 74 ft 0 kts 335°
2026-05-06 10:26 43.44740 39.94188 60 ft 4 kts 335°
2026-05-06 10:27 43.44716 39.94204 64 ft 4 kts 335°
2026-05-06 10:27 43.44691 39.94219 63 ft 4 kts 336°
2026-05-06 10:27 43.44666 39.94234 68 ft 4 kts 340°
2026-05-06 10:27 43.44649 39.94241 66 ft 2 kts 356°
2026-05-06 10:28 43.44637 39.94239 66 ft 2 kts 47°
2026-05-06 10:28 43.44632 39.94227 66 ft 0 kts 66°
2026-05-06 10:31 43.44633 39.94229 66 ft 1 kts 65°
2026-05-06 10:31 43.44645 39.94265 72 ft 7 kts 64°
2026-05-06 10:31 43.44667 39.94330 68 ft 8 kts 65°
2026-05-06 10:32 43.44689 39.94395 69 ft 7 kts 64°
2026-05-06 10:32 43.44713 39.94465 65 ft 9 kts 64°
2026-05-06 10:32 43.44745 39.94558 68 ft 11 kts 65°
2026-05-06 10:32 43.44778 39.94655 69 ft 11 kts 65°
2026-05-06 10:33 43.44811 39.94751 72 ft 12 kts 65°
2026-05-06 10:33 43.44847 39.94855 66 ft 12 kts 65°
2026-05-06 10:33 43.44881 39.94955 75 ft 11 kts 65°
2026-05-06 10:33 43.44915 39.95054 83 ft 11 kts 64°
2026-05-06 10:34 43.44951 39.95147 82 ft 11 kts 62°
2026-05-06 10:34 43.44984 39.95239 87 ft 11 kts 64°
2026-05-06 10:34 43.44985 39.95329 87 ft 10 kts 127°
2026-05-06 10:34 43.44926 39.95374 90 ft 9 kts 158°
2026-05-06 10:35 43.44888 39.95335 86 ft 1 kts 245°
2026-05-06 10:36 43.44811 39.95112 82 ft 64 kts 245°
2026-05-06 10:36 43.44516 39.94244 74 ft 133 kts 245°
2026-05-06 10:36 43.44047 39.92891 361 ft 165 kts 246°
2026-05-06 10:36 43.43593 39.91436 1255 ft 168 kts 257°
2026-05-06 10:37 43.43341 39.89765 1974 ft 190 kts 259°
2026-05-06 10:37 43.43079 39.87902 2467 ft 209 kts 259°
2026-05-06 10:37 43.42787 39.85842 2810 ft 231 kts 259°
2026-05-06 10:37 43.42461 39.83598 3351 ft 245 kts 259°
2026-05-06 10:38 43.42096 39.81190 3891 ft 263 kts 258°
2026-05-06 10:38 43.41670 39.78718 4814 ft 266 kts 257°
2026-05-06 10:38 43.41221 39.76269 5750 ft 268 kts 256°
2026-05-06 10:38 43.40762 39.73759 6642 ft 272 kts 257°
2026-05-06 10:39 43.40302 39.71208 7487 ft 276 kts 257°
2026-05-06 10:39 43.39841 39.68624 8345 ft 279 kts 257°
2026-05-06 10:39 43.39381 39.66044 9195 ft 283 kts 257°
2026-05-06 10:39 43.38910 39.63401 10038 ft 287 kts 256°
2026-05-06 10:40 43.38524 39.60648 10528 ft 303 kts 262°
2026-05-06 10:40 43.38294 39.57630 10720 ft 329 kts 265°
2026-05-06 10:40 43.38106 39.54451 11125 ft 344 kts 265°
2026-05-06 10:40 43.37913 39.51131 11826 ft 350 kts 264°
2026-05-06 10:41 43.37709 39.47784 12626 ft 353 kts 264°
2026-05-06 10:41 43.37491 39.44401 13376 ft 358 kts 263°
2026-05-06 10:41 43.37259 39.40967 14098 ft 362 kts 263°
2026-05-06 10:41 43.37019 39.37497 14777 ft 366 kts 263°
2026-05-06 10:42 43.36773 39.33993 15448 ft 370 kts 263°
2026-05-06 10:42 43.36523 39.30453 16107 ft 374 kts 263°
2026-05-06 10:42 43.36271 39.26918 16767 ft 378 kts 263°
2026-05-06 10:42 43.36011 39.23281 17408 ft 383 kts 263°
2026-05-06 10:43 43.35749 39.19618 18061 ft 387 kts 263°
2026-05-06 10:43 43.35482 39.15909 18668 ft 391 kts 263°
2026-05-06 10:43 43.35211 39.12171 19238 ft 395 kts 263°
2026-05-06 10:44 43.33988 39.04864 20358 ft 399 kts 247°
2026-05-06 10:44 43.32939 39.01270 20943 ft 402 kts 246°
2026-05-06 10:44 43.31902 38.97734 21483 ft 405 kts 247°
2026-05-06 10:44 43.30858 38.94122 22029 ft 409 kts 247°
2026-05-06 10:45 43.29816 38.90461 22566 ft 412 kts 248°
2026-05-06 10:45 43.28777 38.86771 23106 ft 415 kts 248°
2026-05-06 10:45 43.27748 38.83110 23622 ft 418 kts 248°
2026-05-06 10:45 43.26696 38.79375 24062 ft 421 kts 248°
2026-05-06 10:46 43.25633 38.75622 24483 ft 424 kts 247°
2026-05-06 10:46 43.24548 38.71843 24900 ft 427 kts 247°
2026-05-06 10:46 43.23450 38.68044 25324 ft 429 kts 247°
2026-05-06 10:46 43.22337 38.64200 25714 ft 432 kts 247°
2026-05-06 10:47 43.21236 38.60401 26117 ft 435 kts 247°
2026-05-06 10:47 43.20115 38.56532 26495 ft 438 kts 247°
2026-05-06 10:47 43.18987 38.52642 26875 ft 441 kts 246°
2026-05-06 10:47 43.17848 38.48717 27243 ft 443 kts 246°
2026-05-06 10:48 43.16704 38.44778 27615 ft 446 kts 246°
2026-05-06 10:48 43.15550 38.40815 27977 ft 449 kts 246°
2026-05-06 10:48 43.14389 38.36830 28318 ft 451 kts 246°
2026-05-06 10:48 43.13235 38.32879 28657 ft 454 kts 246°
2026-05-06 10:49 43.12059 38.28855 29001 ft 456 kts 246°
2026-05-06 10:49 43.10874 38.24806 29323 ft 459 kts 246°
2026-05-06 10:49 43.09683 38.20742 29644 ft 461 kts 246°
2026-05-06 10:49 43.08481 38.16653 29960 ft 464 kts 246°
2026-05-06 10:50 43.07282 38.12538 30253 ft 466 kts 246°
2026-05-06 10:50 43.06099 38.08448 30545 ft 466 kts 247°
2026-05-06 10:50 43.04905 38.04320 30922 ft 465 kts 247°
2026-05-06 10:50 43.03710 38.00205 31261 ft 465 kts 247°
2026-05-06 10:51 43.02510 37.96099 31564 ft 465 kts 246°
2026-05-06 10:51 43.01297 37.91990 31858 ft 466 kts 246°
2026-05-06 10:51 43.00092 37.87921 32177 ft 466 kts 246°
2026-05-06 10:51 42.98878 37.83826 32516 ft 465 kts 246°
2026-05-06 10:52 42.97662 37.79724 32818 ft 465 kts 246°
2026-05-06 10:52 42.96439 37.75622 33100 ft 466 kts 246°
2026-05-06 10:52 42.95225 37.71566 33394 ft 466 kts 246°
2026-05-06 10:52 42.93998 37.67474 33701 ft 466 kts 246°
2026-05-06 10:53 42.92770 37.63384 33995 ft 466 kts 246°
2026-05-06 10:53 42.91538 37.59288 34256 ft 466 kts 246°
2026-05-06 10:53 42.90305 37.55188 34517 ft 465 kts 246°
2026-05-06 10:53 42.89076 37.51111 34809 ft 464 kts 246°
2026-05-06 10:54 42.87848 37.47039 35083 ft 463 kts 246°
2026-05-06 10:54 42.86618 37.42972 35319 ft 463 kts 246°
2026-05-06 10:54 42.85407 37.38969 35556 ft 462 kts 246°
2026-05-06 10:54 42.84181 37.34924 35816 ft 461 kts 246°
2026-05-06 10:55 42.82953 37.30880 36070 ft 460 kts 246°
2026-05-06 10:55 42.80484 37.22770 36137 ft 464 kts 246°
2026-05-06 10:56 42.78014 37.14676 36128 ft 460 kts 246°
2026-05-06 10:56 42.75573 37.06704 36136 ft 457 kts 246°
2026-05-06 10:57 42.73122 36.98720 36137 ft 455 kts 246°
2026-05-06 10:57 42.70663 36.90777 36136 ft 454 kts 245°
2026-05-06 10:58 42.67957 36.83080 36109 ft 452 kts 243°
2026-05-06 10:58 42.65119 36.75434 36132 ft 453 kts 243°
2026-05-06 10:59 42.62285 36.67763 36146 ft 454 kts 243°
2026-05-06 10:59 42.59476 36.60099 36148 ft 456 kts 243°
2026-05-06 11:00 42.56643 36.52358 36144 ft 458 kts 243°
2026-05-06 11:00 42.53811 36.44638 36141 ft 460 kts 243°
2026-05-06 11:01 42.50949 36.36858 36141 ft 460 kts 243°
2026-05-06 11:01 42.48078 36.29080 36139 ft 461 kts 243°
2026-05-06 11:02 42.45220 36.21357 36137 ft 460 kts 243°
2026-05-06 11:02 42.42342 36.13601 36138 ft 459 kts 243°
2026-05-06 11:03 42.39486 36.05927 36136 ft 458 kts 243°
2026-05-06 11:03 42.36619 35.98242 36133 ft 457 kts 243°
2026-05-06 11:04 42.33742 35.90553 36131 ft 456 kts 243°
2026-05-06 11:04 42.30892 35.82955 36136 ft 454 kts 243°
2026-05-06 11:05 42.28034 35.75355 36142 ft 453 kts 243°
2026-05-06 11:05 42.25652 35.69037 36136 ft 453 kts 243°
2026-05-06 11:06 42.23266 35.62721 36133 ft 453 kts 243°
2026-05-06 11:06 42.19928 35.53909 36134 ft 452 kts 243°
2026-05-06 11:07 42.17056 35.46346 36130 ft 453 kts 243°
2026-05-06 11:07 42.14179 35.38788 36127 ft 453 kts 244°
2026-05-06 11:08 42.11307 35.31226 36131 ft 454 kts 244°
2026-05-06 11:08 42.08440 35.23685 36127 ft 454 kts 244°
2026-05-06 11:09 42.05549 35.16104 36127 ft 455 kts 244°
2026-05-06 11:09 42.02898 35.08448 36116 ft 454 kts 253°
2026-05-06 11:10 42.01818 35.00125 36132 ft 451 kts 268°
2026-05-06 11:10 42.01473 34.91691 36120 ft 452 kts 268°
2026-05-06 11:11 42.01126 34.83301 36125 ft 452 kts 268°
2026-05-06 11:11 42.00733 34.74847 36121 ft 452 kts 268°
2026-05-06 11:12 42.00317 34.66418 36124 ft 451 kts 268°
2026-05-06 11:12 41.99892 34.57988 36122 ft 451 kts 268°
2026-05-06 11:13 41.99465 34.49628 36123 ft 451 kts 268°
2026-05-06 11:13 41.99030 34.41227 36123 ft 450 kts 268°
2026-05-06 11:14 41.98590 34.32826 36121 ft 449 kts 268°
2026-05-06 11:14 41.98144 34.24439 36116 ft 449 kts 268°
2026-05-06 11:15 41.97696 34.16116 36114 ft 448 kts 268°
2026-05-06 11:15 41.97239 34.07738 36120 ft 448 kts 268°
2026-05-06 11:16 41.96779 33.99428 36116 ft 448 kts 268°
2026-05-06 11:16 41.96309 33.91056 36119 ft 448 kts 268°
2026-05-06 11:17 41.95835 33.82689 36115 ft 448 kts 268°
2026-05-06 11:17 41.95357 33.74367 36114 ft 448 kts 268°
2026-05-06 11:18 41.94565 33.66059 36119 ft 450 kts 261°
2026-05-06 11:18 41.93230 33.57833 36114 ft 450 kts 259°
2026-05-06 11:19 41.91876 33.49662 36113 ft 450 kts 260°
2026-05-06 11:19 41.90557 33.41434 36103 ft 450 kts 260°
2026-05-06 11:20 41.89255 33.33208 36113 ft 449 kts 260°
2026-05-06 11:20 41.87961 33.25058 36113 ft 448 kts 260°
2026-05-06 11:21 41.86653 33.16879 36121 ft 448 kts 260°
2026-05-06 11:21 41.85339 33.08696 36114 ft 448 kts 261°
2026-05-06 11:22 41.84026 33.00569 36108 ft 448 kts 261°
2026-05-06 11:22 41.82694 32.92381 36120 ft 448 kts 261°
2026-05-06 11:23 41.81362 32.84221 36105 ft 448 kts 261°
2026-05-06 11:23 41.80032 32.76113 36113 ft 447 kts 261°
2026-05-06 11:24 41.78694 32.67983 36113 ft 446 kts 261°
2026-05-06 11:24 41.77350 32.59860 36121 ft 445 kts 261°
2026-05-06 11:25 41.76005 32.51768 36127 ft 444 kts 261°
2026-05-06 11:25 41.74664 32.43732 36122 ft 444 kts 261°
2026-05-06 11:26 41.73312 32.35667 36130 ft 443 kts 261°
2026-05-06 11:26 41.71951 32.27625 36124 ft 442 kts 260°
2026-05-06 11:27 41.70524 32.19672 36123 ft 441 kts 260°
2026-05-06 11:27 41.69067 32.11691 36127 ft 440 kts 260°
2026-05-06 11:28 41.67618 32.03741 36127 ft 439 kts 260°
2026-05-06 11:28 41.66177 31.95835 36131 ft 439 kts 260°
2026-05-06 11:29 41.64728 31.87906 36129 ft 439 kts 260°
2026-05-06 11:29 41.63270 31.79961 36127 ft 439 kts 260°
2026-05-06 11:30 41.61816 31.72075 36128 ft 439 kts 260°
2026-05-06 11:30 41.60345 31.64132 36123 ft 440 kts 260°
2026-05-06 11:31 41.58868 31.56187 36124 ft 440 kts 259°
2026-05-06 11:31 41.57392 31.48281 36122 ft 441 kts 259°
2026-05-06 11:32 41.55903 31.40329 36124 ft 441 kts 259°
2026-05-06 11:32 41.54420 31.32406 36123 ft 441 kts 260°
2026-05-06 11:33 41.52989 31.24457 36119 ft 441 kts 260°
2026-05-06 11:33 41.51561 31.16462 36116 ft 442 kts 260°
2026-05-06 11:34 41.50125 31.08486 36124 ft 442 kts 260°
2026-05-06 11:34 41.48685 31.00550 36116 ft 442 kts 260°
2026-05-06 11:35 41.47232 30.92583 36119 ft 442 kts 259°
2026-05-06 11:35 41.45774 30.84618 36118 ft 441 kts 259°
2026-05-06 11:36 41.44321 30.76718 36122 ft 441 kts 259°
2026-05-06 11:36 41.42854 30.68773 36121 ft 440 kts 259°
2026-05-06 11:37 41.41391 30.60886 36117 ft 440 kts 259°
2026-05-06 11:37 41.39916 30.52962 36122 ft 440 kts 259°
2026-05-06 11:38 41.38435 30.45039 36116 ft 439 kts 259°
2026-05-06 11:38 41.36962 30.37191 36115 ft 439 kts 259°
2026-05-06 11:39 41.35475 30.29300 36115 ft 439 kts 259°
2026-05-06 11:39 41.33980 30.21401 36115 ft 439 kts 259°
2026-05-06 11:40 41.32481 30.13510 36115 ft 439 kts 258°
2026-05-06 11:40 41.30986 30.05666 36117 ft 439 kts 258°
2026-05-06 11:41 41.29468 29.97785 36115 ft 439 kts 258°
2026-05-06 11:41 41.27869 29.89985 36110 ft 439 kts 257°
2026-05-06 11:42 41.26237 29.82147 36110 ft 439 kts 257°
2026-05-06 11:42 41.24613 29.74316 36109 ft 439 kts 258°
2026-05-06 11:43 41.23000 29.66538 36105 ft 439 kts 258°
2026-05-06 11:43 41.21374 29.58718 36103 ft 439 kts 258°
2026-05-06 11:44 41.18965 29.46972 36099 ft 438 kts 259°
2026-05-06 11:44 41.17489 29.39174 36099 ft 438 kts 259°
2026-05-06 11:45 41.15994 29.31317 36102 ft 438 kts 259°
2026-05-06 11:45 41.14482 29.23472 36097 ft 438 kts 259°
2026-05-06 11:46 41.12872 29.15667 36092 ft 440 kts 253°
2026-05-06 11:46 41.09949 29.08470 36107 ft 447 kts 240°
2026-05-06 11:47 41.06475 29.01680 36099 ft 447 kts 240°
2026-05-06 11:47 41.03030 28.94853 36096 ft 447 kts 240°
2026-05-06 11:48 40.99610 28.87993 36105 ft 446 kts 240°
2026-05-06 11:48 40.96820 28.80733 36118 ft 436 kts 257°
2026-05-06 11:49 40.96005 28.72941 36111 ft 427 kts 273°
2026-05-06 11:49 40.96028 28.65074 36110 ft 427 kts 274°
2026-05-06 11:50 40.96059 28.57205 36093 ft 427 kts 274°
2026-05-06 11:50 40.96054 28.50660 36092 ft 427 kts 273°
2026-05-06 11:51 40.96018 28.41507 36096 ft 427 kts 273°
2026-05-06 11:51 40.95976 28.33692 36100 ft 427 kts 273°
2026-05-06 11:52 40.95928 28.25805 36084 ft 427 kts 273°
2026-05-06 11:52 40.95876 28.17996 36085 ft 427 kts 273°
2026-05-06 11:53 40.95819 28.10136 36083 ft 426 kts 273°
2026-05-06 11:53 40.95768 28.03622 36083 ft 426 kts 273°
2026-05-06 11:54 40.95690 27.94505 36083 ft 426 kts 273°
2026-05-06 11:54 40.95629 27.87981 36082 ft 426 kts 273°
2026-05-06 11:55 40.95552 27.80139 36082 ft 425 kts 273°
2026-05-06 11:55 40.95469 27.72300 36084 ft 425 kts 273°
2026-05-06 11:56 40.95382 27.64521 36082 ft 425 kts 273°
2026-05-06 11:56 40.95290 27.56696 36083 ft 425 kts 273°
2026-05-06 11:57 40.95192 27.48864 36082 ft 425 kts 273°
2026-05-06 11:57 40.95063 27.41046 36079 ft 426 kts 271°
2026-05-06 11:58 40.94643 27.33202 36078 ft 427 kts 269°
2026-05-06 11:58 40.94169 27.25408 36073 ft 427 kts 270°
2026-05-06 11:59 40.93723 27.17546 36066 ft 427 kts 270°
2026-05-06 11:59 40.93284 27.09729 36070 ft 427 kts 270°
2026-05-06 12:00 40.92842 27.01873 36058 ft 427 kts 270°
2026-05-06 12:00 40.92393 26.94040 36062 ft 427 kts 270°
2026-05-06 12:01 40.91943 26.86258 36068 ft 427 kts 270°
2026-05-06 12:01 40.91484 26.78405 36056 ft 427 kts 270°
2026-05-06 12:02 40.91021 26.70581 36060 ft 426 kts 270°
2026-05-06 12:02 40.90554 26.62759 36052 ft 426 kts 270°
2026-05-06 12:03 40.90085 26.55003 36057 ft 425 kts 270°
2026-05-06 12:03 40.89609 26.47223 36062 ft 424 kts 270°
2026-05-06 12:04 40.89129 26.39443 36059 ft 423 kts 270°
2026-05-06 12:04 40.88649 26.31750 36065 ft 422 kts 270°
2026-05-06 12:05 40.88158 26.24016 36070 ft 421 kts 269°
2026-05-06 12:05 40.87444 26.16301 36073 ft 422 kts 267°
2026-05-06 12:06 40.86658 26.08625 36061 ft 421 kts 268°
2026-05-06 12:06 40.85908 26.01004 36081 ft 420 kts 268°
2026-05-06 12:07 40.85279 25.94594 36067 ft 420 kts 267°
2026-05-06 12:07 40.84223 25.85697 36079 ft 421 kts 266°
2026-05-06 12:08 40.83273 25.78096 36075 ft 421 kts 266°
2026-05-06 12:08 40.82329 25.70434 36073 ft 421 kts 266°
2026-05-06 12:09 40.81398 25.62839 36072 ft 421 kts 266°
2026-05-06 12:09 40.80457 25.55205 36069 ft 421 kts 266°
2026-05-06 12:10 40.79511 25.47561 36070 ft 421 kts 266°
2026-05-06 12:10 40.78564 25.39983 36071 ft 421 kts 266°
2026-05-06 12:11 40.77603 25.32358 36068 ft 421 kts 266°
2026-05-06 12:11 40.76641 25.24752 36070 ft 420 kts 266°
2026-05-06 12:12 40.75677 25.17170 36069 ft 420 kts 266°
2026-05-06 12:12 40.74708 25.09574 36063 ft 420 kts 266°
2026-05-06 12:13 40.73728 25.01971 36063 ft 420 kts 266°
2026-05-06 12:13 40.72742 24.94378 36057 ft 420 kts 266°
2026-05-06 12:14 40.71760 24.86840 36052 ft 419 kts 266°
2026-05-06 12:14 40.70768 24.79257 36058 ft 419 kts 265°
2026-05-06 12:15 40.69771 24.71680 36038 ft 419 kts 265°
2026-05-06 12:15 40.68785 24.64209 36047 ft 419 kts 265°
2026-05-06 12:16 40.67780 24.56627 36061 ft 419 kts 265°
2026-05-06 12:16 40.66771 24.49047 36040 ft 420 kts 265°
2026-05-06 12:17 40.65761 24.41508 36056 ft 420 kts 265°
2026-05-06 12:17 40.64742 24.33926 36056 ft 419 kts 265°
2026-05-06 12:18 40.63716 24.26340 36055 ft 419 kts 264°
2026-05-06 12:18 40.62693 24.18824 36054 ft 419 kts 264°
2026-05-06 12:19 40.61660 24.11261 36053 ft 419 kts 264°
2026-05-06 12:19 40.60631 24.03750 36053 ft 418 kts 264°
2026-05-06 12:20 40.59590 23.96203 36056 ft 418 kts 264°
2026-05-06 12:20 40.58541 23.88665 36049 ft 418 kts 264°
2026-05-06 12:21 40.57495 23.81186 36049 ft 418 kts 264°
2026-05-06 12:21 40.56438 23.73653 36052 ft 418 kts 264°
2026-05-06 12:22 40.55376 23.66116 36049 ft 418 kts 263°
2026-05-06 12:22 40.54314 23.58622 36048 ft 419 kts 263°
2026-05-06 12:23 40.53242 23.51087 36041 ft 419 kts 263°
2026-05-06 12:23 40.52161 23.43541 36040 ft 419 kts 263°
2026-05-06 12:24 40.51080 23.36056 36042 ft 419 kts 263°
2026-05-06 12:24 40.49988 23.28524 36038 ft 419 kts 263°
2026-05-06 12:25 40.48892 23.20995 36044 ft 418 kts 263°
2026-05-06 12:25 40.47795 23.13486 36042 ft 418 kts 263°
2026-05-06 12:26 40.46694 23.05985 36049 ft 418 kts 262°
2026-05-06 12:26 40.45474 22.98560 36042 ft 420 kts 256°
2026-05-06 12:27 40.43195 22.91445 36045 ft 423 kts 250°
2026-05-06 12:27 40.40762 22.84399 36047 ft 422 kts 250°
2026-05-06 12:28 40.38383 22.77399 36043 ft 422 kts 250°
2026-05-06 12:28 40.36006 22.70354 36040 ft 421 kts 250°
2026-05-06 12:29 40.33648 22.63375 36040 ft 420 kts 250°
2026-05-06 12:29 40.31263 22.56372 36037 ft 420 kts 249°
2026-05-06 12:30 40.28866 22.49409 36040 ft 419 kts 249°
2026-05-06 12:30 40.26499 22.42405 36041 ft 419 kts 250°
2026-05-06 12:31 40.24154 22.35415 36045 ft 419 kts 250°
2026-05-06 12:31 40.21813 22.28470 36033 ft 419 kts 249°
2026-05-06 12:32 40.19443 22.21465 35726 ft 425 kts 249°
2026-05-06 12:32 40.18242 22.17922 35207 ft 424 kts 249°
2026-05-06 12:32 40.17046 22.14401 34731 ft 421 kts 249°
2026-05-06 12:33 40.15862 22.10922 34303 ft 417 kts 249°
2026-05-06 12:33 40.14688 22.07472 33839 ft 413 kts 249°
2026-05-06 12:33 40.13523 22.04053 33357 ft 410 kts 249°
2026-05-06 12:33 40.12380 22.00703 32929 ft 406 kts 249°
2026-05-06 12:34 40.11229 21.97365 32602 ft 399 kts 249°
2026-05-06 12:34 40.10075 21.94089 32202 ft 395 kts 248°
2026-05-06 12:34 40.08922 21.90841 31816 ft 392 kts 248°
2026-05-06 12:34 40.07779 21.87627 31393 ft 389 kts 248°
2026-05-06 12:35 40.06642 21.84426 30969 ft 386 kts 248°
2026-05-06 12:35 40.05516 21.81256 30573 ft 383 kts 248°
2026-05-06 12:35 40.04416 21.78156 30171 ft 381 kts 249°
2026-05-06 12:35 40.03301 21.75018 29703 ft 379 kts 248°
2026-05-06 12:36 40.02199 21.71917 29272 ft 375 kts 248°
2026-05-06 12:36 40.01106 21.68845 28839 ft 372 kts 249°
2026-05-06 12:36 40.00022 21.65799 28414 ft 368 kts 249°
2026-05-06 12:36 39.98947 21.62781 28028 ft 364 kts 248°
2026-05-06 12:37 39.97877 21.59782 27595 ft 362 kts 248°
2026-05-06 12:37 39.96814 21.56807 27190 ft 360 kts 248°
2026-05-06 12:37 39.95771 21.53890 26758 ft 358 kts 249°
2026-05-06 12:37 39.94719 21.50933 26267 ft 359 kts 249°
2026-05-06 12:38 39.93670 21.47984 25859 ft 357 kts 249°
2026-05-06 12:38 39.92626 21.45048 25460 ft 356 kts 249°
2026-05-06 12:38 39.91588 21.42131 25061 ft 354 kts 249°
2026-05-06 12:38 39.90551 21.39220 24666 ft 353 kts 249°
2026-05-06 12:39 39.89532 21.36364 24297 ft 352 kts 249°
2026-05-06 12:39 39.88488 21.33438 23891 ft 351 kts 249°
2026-05-06 12:39 39.87469 21.30588 23474 ft 351 kts 249°
2026-05-06 12:39 39.86440 21.27713 23037 ft 349 kts 248°
2026-05-06 12:40 39.85415 21.24851 22633 ft 347 kts 248°
2026-05-06 12:40 39.84398 21.22014 22234 ft 345 kts 248°
2026-05-06 12:40 39.83727 21.20145 21967 ft 343 kts 248°
2026-05-06 12:40 39.82719 21.17335 21607 ft 341 kts 248°
2026-05-06 12:41 39.81393 21.13649 21112 ft 338 kts 248°
2026-05-06 12:41 39.81057 21.12715 20984 ft 338 kts 248°
2026-05-06 12:41 39.78469 21.05529 20032 ft 333 kts 248°
2026-05-06 12:42 39.77482 21.02793 19654 ft 333 kts 248°
2026-05-06 12:42 39.76501 21.00076 19291 ft 332 kts 248°
2026-05-06 12:42 39.75520 20.97363 18921 ft 332 kts 248°
2026-05-06 12:42 39.74548 20.94675 18548 ft 332 kts 248°
2026-05-06 12:43 39.73567 20.91963 18137 ft 332 kts 248°
2026-05-06 12:43 39.72585 20.89252 17737 ft 331 kts 248°
2026-05-06 12:43 39.71598 20.86531 17351 ft 330 kts 248°
2026-05-06 12:43 39.70618 20.83834 16968 ft 329 kts 247°
2026-05-06 12:44 39.69659 20.81177 16570 ft 328 kts 248°
2026-05-06 12:44 39.68727 20.78460 16119 ft 329 kts 249°
2026-05-06 12:44 39.67809 20.75734 15745 ft 327 kts 249°
2026-05-06 12:44 39.66900 20.73025 15374 ft 326 kts 249°
2026-05-06 12:45 39.65994 20.70334 14997 ft 325 kts 249°
2026-05-06 12:45 39.65087 20.67649 14632 ft 323 kts 249°
2026-05-06 12:45 39.63298 20.62370 13921 ft 319 kts 248°
2026-05-06 12:46 39.62405 20.59740 13518 ft 318 kts 248°
2026-05-06 12:46 39.61512 20.57115 13130 ft 316 kts 248°
2026-05-06 12:46 39.60626 20.54517 12759 ft 314 kts 248°
2026-05-06 12:46 39.59744 20.51928 12413 ft 311 kts 248°
2026-05-06 12:47 39.58871 20.49370 12054 ft 309 kts 248°
2026-05-06 12:47 39.58295 20.47683 11827 ft 309 kts 248°
2026-05-06 12:47 39.57143 20.44314 11320 ft 307 kts 248°
2026-05-06 12:47 39.56284 20.41810 10982 ft 299 kts 248°
2026-05-06 12:48 39.55447 20.39368 10606 ft 292 kts 248°
2026-05-06 12:48 39.54640 20.37016 10449 ft 284 kts 248°
2026-05-06 12:48 39.53634 20.34860 10301 ft 275 kts 231°
2026-05-06 12:48 39.52225 20.33258 10188 ft 266 kts 217°
2026-05-06 12:49 39.51173 20.32452 10108 ft 264 kts 208°
2026-05-06 12:49 39.49494 20.31481 9862 ft 265 kts 205°
2026-05-06 12:49 39.47780 20.30608 9575 ft 264 kts 205°
2026-05-06 12:49 39.46101 20.29654 9294 ft 263 kts 208°
2026-05-06 12:50 39.44463 20.28597 9007 ft 262 kts 211°
2026-05-06 12:50 39.42887 20.27423 8731 ft 261 kts 214°
2026-05-06 12:50 39.41362 20.26165 8459 ft 260 kts 217°
2026-05-06 12:50 39.39927 20.24791 8179 ft 261 kts 220°
2026-05-06 12:51 39.38541 20.23268 7888 ft 260 kts 224°
2026-05-06 12:51 39.37233 20.21657 7617 ft 258 kts 226°
2026-05-06 12:51 39.35999 20.19975 7351 ft 257 kts 229°
2026-05-06 12:51 39.34839 20.18226 7078 ft 255 kts 232°
2026-05-06 12:52 39.33747 20.16416 6805 ft 254 kts 234°
2026-05-06 12:52 39.32715 20.14562 6537 ft 254 kts 237°
2026-05-06 12:52 39.31794 20.12653 6246 ft 253 kts 240°
2026-05-06 12:52 39.30960 20.10653 5950 ft 253 kts 243°
2026-05-06 12:53 39.30213 20.08602 5669 ft 252 kts 246°
2026-05-06 12:53 39.29544 20.06507 5345 ft 253 kts 249°
2026-05-06 12:53 39.28935 20.04360 5037 ft 253 kts 252°
2026-05-06 12:53 39.28844 20.02156 4764 ft 252 kts 287°
2026-05-06 12:54 39.29049 20.01519 4740 ft 250 kts 299°
2026-05-06 12:54 39.30274 20.00044 4616 ft 245 kts 334°
2026-05-06 12:54 39.31875 19.99381 4487 ft 239 kts 345°
2026-05-06 12:54 39.33462 19.98918 4372 ft 227 kts 346°
2026-05-06 12:55 39.34969 19.98484 4251 ft 216 kts 345°
2026-05-06 12:55 39.36419 19.98103 4028 ft 211 kts 352°
2026-05-06 12:55 39.37858 19.97996 3852 ft 206 kts 356°
2026-05-06 12:55 39.39276 19.97939 3658 ft 200 kts 356°
2026-05-06 12:56 39.40649 19.97879 3452 ft 194 kts 356°
2026-05-06 12:56 39.41982 19.97815 3231 ft 189 kts 356°
2026-05-06 12:56 39.43250 19.97529 3023 ft 183 kts 342°
2026-05-06 12:56 39.44462 19.97058 2837 ft 181 kts 341°
2026-05-06 12:57 39.45659 19.96588 2655 ft 178 kts 341°
2026-05-06 12:57 39.46811 19.96143 2480 ft 170 kts 341°
2026-05-06 12:57 39.47923 19.95720 2318 ft 162 kts 341°
2026-05-06 12:57 39.48987 19.95316 2075 ft 160 kts 341°
2026-05-06 12:58 39.50049 19.94916 1863 ft 158 kts 342°
2026-05-06 12:58 39.51107 19.94518 1646 ft 157 kts 341°
2026-05-06 12:58 39.52151 19.94107 1445 ft 155 kts 338°
2026-05-06 12:58 39.53157 19.93588 1237 ft 155 kts 336°
2026-05-06 12:59 39.54160 19.93082 1076 ft 157 kts 338°
2026-05-06 12:59 39.55190 19.92625 940 ft 156 kts 340°
2026-05-06 12:59 39.56219 19.92248 799 ft 155 kts 347°
2026-05-06 12:59 39.57289 19.91955 599 ft 158 kts 351°
2026-05-06 13:00 39.58366 19.91686 314 ft 156 kts 352°
2026-05-06 13:00 39.59415 19.91411 30 ft 151 kts 350°
2026-05-06 13:00 39.60340 19.91175 20 ft 108 kts 348°
2026-05-06 13:00 39.60856 19.91040 19 ft 45 kts 348°
2026-05-06 13:01 39.61016 19.91015 18 ft 13 kts 39°
2026-05-06 13:01 39.61059 19.91107 18 ft 8 kts 91°
2026-05-06 13:01 39.61017 19.91137 18 ft 7 kts 163°
2026-05-06 13:01 39.60969 19.91147 20 ft 7 kts 172°
2026-05-06 13:02 39.60915 19.91160 18 ft 9 kts 168°
2026-05-06 13:02 39.60847 19.91178 17 ft 11 kts 169°
2026-05-06 13:02 39.60776 19.91198 17 ft 10 kts 167°
2026-05-06 13:02 39.60709 19.91218 20 ft 10 kts 153°
2026-05-06 13:03 39.60698 19.91301 19 ft 10 kts 78°
2026-05-06 13:03 39.60706 19.91353 17 ft 0 kts 78°